Погода в Тыниште над Орлице

Чехия     50°08′49″N   16°04′13″E
темп.,
°C
ветер,
м/с
пор.,
м/с
влажн.,
%
обл.,
%
осадки,
мм/ч
давл.,
гПа
погр.,
м
16 мая, вс
вс1623:00+9юв2495100 2.3 100673
02:00+8ююв229612 3.6 100628
05:00+6ююв229886 0.0 100627
08:00+8ю2298100 1.5 1007121
11:00+13з787798 0.9 10061222
14:00+14зюз576396 1.0 10061611
17:00+15юз246129 0.1 10051295
20:00+11ю11835 0.5 100410
17 мая, пн
пн1723:00+9юв338977 0.0 100535
02:00+9зюз1392100 0.1 100575
05:00+9юв2397100 0.9 100575
08:00+10ююз2492100 1.1 1005398
11:00+11з4688100 0.7 1006645
14:00+11зсз5887100 2.3 1006731
17:00+12з6986100 1.1 1006896
20:00+10з51188100 1.8 1008536
18 мая, вт
вт1823:00+9з51289100 0.2 1009449
02:00+7з41292100 0.3 1010489
05:00+8з398953 0.0 1010504
08:00+9з6128885 0.1 1011810
11:00+13з797145 0.9 10111439
14:00+14з786758 1.4 10111554
17:00+14з687561 1.3 10121104
20:00+10з49889 2.3 1012280
19 мая, ср
ср1923:00+8зюз399569 0.4 1014321
02:00+8зюз3796100 0.8 1015336
05:00+7зюз2696100 0.0 1015340
08:00+8з4693100 0.1 1016372
11:00+11з6769100 0.1 10151328
14:00+13зсз676570 0.4 10141533
17:00+13зсз676939 0.4 10131108
20:00+10зсз33826 0.9 101452
20 мая, чт
чт2023:00+6ссз11895 0.0 101513
02:00+4св01915 0.0 101610
05:00+3з119333 0.0 101713
08:00+8з12837 0.0 1017285
11:00+13зсз447089 0.6 10171183
14:00+14зсз667053 3.4 10171243
17:00+12сз68745 2.1 1018849
20:00+9зсз37853 2.9 1019156